La Vergne, TN

6:50 AM CDT on September 28, 2016 (GMT -0500)
Smyrna

Weather History for KMQY - January, 2013

Change the Weather History Date:

Friday, January 4, 2013

  Actual Average Record
Temperature  
Mean Temperature 32 °F -  
Max Temperature 45 °F 45 °F 73 °F (2004)
Min Temperature 20 °F 33 °F 12 °F (2002)
Degree Days  
Heating Degree Days 32    
Moisture  
Dew Point 23 °F    
Average Humidity 78    
Maximum Humidity 100    
Minimum Humidity 41    
Precipitation  
Precipitation 0.00 in - - ()
Sea Level Pressure  
Sea Level Pressure 30.44 in    
Wind  
Wind Speed 1 mph (NW)    
Max Wind Speed 9 mph    
Max Gust Speed -    
Visibility 10 miles    
Events      
Averages and records for this station are not official NWS values.
T = Trace of Precipitation, MM = Missing Value Source: NWS Daily Summary

Daily Weather History Graph

Daily Weather History Graph

Search for Another Location

Airport or City:

Trip Planner

Search our weather history database for the weather conditions in past years. The results will help you decide how hot, cold, wet, or windy it might be!

Date:

Astronomy

Jan. 04, 2013 Rise Set
Actual Time 6:57 AM CST 4:45 PM CST
Civil Twilight 6:28 AM CST 5:13 PM CST
Nautical Twilight 5:56 AM CST 5:45 PM CST
Astronomical Twilight 5:25 AM CST 6:16 PM CST
Moon No Moon Rise 10:54 AM CST (1/4)
Length of Visible Light 10h 45m
Length of Day
9h 48m
Waning Gibbous, 55% of the Moon is Illuminated
Jan 4
Waning Gibbous
Jan 4
Last Quarter
Jan 11
New
Jan 18
First Quarter
Jan 26
Full

Hourly Weather History & Observations

Time (CST) Temp. Windchill Dew Point Humidity Pressure Visibility Wind Dir Wind Speed Gust Speed Precip Events Conditions
12:56 AM 27.1 °F - 25.2 °F 92% 30.42 in 10.0 mi Calm Calm - N/A   Clear
1:56 AM 24.1 °F - 22.1 °F 92% 30.43 in 10.0 mi Calm Calm - N/A   Clear
2:56 AM 23.0 °F - 21.0 °F 92% 30.42 in 10.0 mi Calm Calm - N/A   Clear
3:56 AM 21.0 °F - 20.1 °F 96% 30.43 in 10.0 mi Calm Calm - N/A   Clear
4:56 AM 21.0 °F - 21.0 °F 100% 30.45 in 7.0 mi Calm Calm - N/A   Clear
5:56 AM 21.0 °F - 20.1 °F 96% 30.46 in 6.0 mi Calm Calm - N/A   Clear
6:56 AM 20.1 °F - 19.0 °F 96% 30.47 in 7.0 mi Calm Calm - N/A   Clear
7:56 AM 24.1 °F - 23.0 °F 96% 30.47 in 7.0 mi Calm Calm - N/A   Clear
8:56 AM 29.1 °F - 27.1 °F 92% 30.50 in 10.0 mi Calm Calm - N/A   Clear
9:56 AM 34.0 °F - 27.1 °F 76% 30.51 in 10.0 mi Calm Calm - N/A   Scattered Clouds
10:56 AM 39.9 °F - 26.1 °F 58% 30.49 in 10.0 mi Calm Calm - N/A   Clear
11:56 AM 43.0 °F 39.5 °F 24.1 °F 47% 30.46 in 10.0 mi NW 5.8 mph - N/A   Clear
12:56 PM 43.9 °F 38.8 °F 24.1 °F 46% 30.43 in 10.0 mi NNW 9.2 mph - N/A   Clear
1:56 PM 45.0 °F 41.8 °F 23.0 °F 42% 30.42 in 10.0 mi West 5.8 mph - N/A   Clear
2:56 PM 45.9 °F - 23.0 °F 41% 30.42 in 10.0 mi Calm Calm - N/A   Clear
3:56 PM 45.0 °F - 23.0 °F 42% 30.42 in 10.0 mi Calm Calm - N/A   Clear
4:56 PM 39.9 °F - 24.1 °F 53% 30.43 in 10.0 mi Calm Calm - N/A   Clear
5:56 PM 32.0 °F - 25.2 °F 76% 30.44 in 10.0 mi Calm Calm - N/A   Clear
6:56 PM 29.1 °F - 24.1 °F 81% 30.44 in 10.0 mi Calm Calm - N/A   Clear
7:56 PM 28.0 °F - 24.1 °F 85% 30.44 in 10.0 mi Calm Calm - N/A   Clear
8:56 PM 26.1 °F - 24.1 °F 92% 30.44 in 10.0 mi Calm Calm - N/A   Clear
9:56 PM 25.2 °F - 23.0 °F 91% 30.43 in 10.0 mi Calm Calm - N/A   Clear
10:56 PM 25.2 °F - 24.1 °F 96% 30.43 in 10.0 mi Calm Calm - N/A   Clear
11:56 PM 24.1 °F - 24.1 °F 100% 30.42 in 10.0 mi Calm Calm - N/A   Clear